Weather History for Decatur, TX

Change the Weather History Date:

Tuesday, January 15, 2013

  Actual Average (KDTO) Record (KDTO)
Temperature  
Mean Temperature 32 °F -  
Max Temperature 35 °F 54 °F 66 °F (2000)
Min Temperature 30 °F 32 °F 21 °F (2009)
Degree Days  
Heating Degree Days 32    
Moisture  
Dew Point 22 °F    
Average Humidity 63    
Maximum Humidity 69    
Minimum Humidity 56    
Precipitation  
Precipitation 0.00 in - - ()
Sea Level Pressure  
Sea Level Pressure 30.21 in    
Wind  
Wind Speed 4 mph (NNW)    
Max Wind Speed 9 mph    
Max Gust Speed -    
Visibility 10 miles    
Events      
Averages and records for this station are not official NWS values.
T = Trace of Precipitation, MM = Missing Value Source: NWS Daily Summary

Daily Weather History Graph

Daily Weather History Graph

Search for Another Location

Airport:

Trip Planner

Search our weather history database for the weather conditions in past years. The results will help you decide how hot, cold, wet, or windy it might be!

Date:

Astronomy

Jan. 15, 2013 Rise Set
Actual Time 7:33 AM CST 5:46 PM CST
Civil Twilight 7:06 AM CST 6:13 PM CST
Nautical Twilight 6:36 AM CST 6:43 PM CST
Astronomical Twilight 6:06 AM CST 7:13 PM CST
Moon 9:55 AM CST (1/15) 10:19 PM CST (1/15)
Length of Visible Light 11h 06m
Length of Day
10h 12m
Waxing Crescent, 19% of the Moon is Illuminated
Jan 15
Waxing Crescent
Jan 18
First Quarter
Jan 26
Full
Feb 3
Last Quarter
Feb 10
New

Hourly Weather History & Observations

Time (CST) Temp. Windchill Dew Point Humidity Pressure Visibility Wind Dir Wind Speed Gust Speed Precip Events Conditions
10:35 AM 32.0 °F 25.6 °F 23.0 °F 69% 30.21 in 10.0 mi NE 6.9 mph - N/A   Overcast
10:55 AM 32.0 °F 25.6 °F 21.2 °F 64% 30.21 in 10.0 mi North 6.9 mph - N/A   Overcast
11:15 AM 32.0 °F 28.7 °F 23.0 °F 69% 30.21 in 10.0 mi North 3.5 mph - N/A   Overcast
11:35 AM 32.0 °F 27.5 °F 23.0 °F 69% 30.20 in 10.0 mi North 4.6 mph - N/A   Mostly Cloudy
11:55 AM 33.8 °F 29.6 °F 23.0 °F 65% 30.19 in 10.0 mi NNW 4.6 mph - N/A   Mostly Cloudy
12:15 PM 33.8 °F 27.7 °F 23.0 °F 65% 30.20 in 10.0 mi North 6.9 mph - N/A   Mostly Cloudy
12:35 PM 33.8 °F 30.8 °F 23.0 °F 65% 30.19 in 10.0 mi NW 3.5 mph - N/A   Overcast
12:55 PM 33.8 °F 29.6 °F 23.0 °F 65% 30.17 in 10.0 mi NW 4.6 mph - N/A   Mostly Cloudy
1:15 PM 33.8 °F 27.7 °F 23.0 °F 65% 30.17 in 10.0 mi NW 6.9 mph - N/A   Scattered Clouds
1:35 PM 33.8 °F 27.0 °F 23.0 °F 65% 30.17 in 10.0 mi NW 8.1 mph - N/A   Mostly Cloudy
1:55 PM 33.8 °F 28.6 °F 23.0 °F 65% 30.17 in 10.0 mi NW 5.8 mph - N/A   Mostly Cloudy
2:15 PM 33.8 °F 26.4 °F 23.0 °F 65% 30.17 in 10.0 mi NW 9.2 mph - N/A   Mostly Cloudy
2:35 PM 35.6 °F 31.7 °F 23.0 °F 60% 30.17 in 10.0 mi NW 4.6 mph - N/A   Mostly Cloudy
2:55 PM 35.6 °F 31.7 °F 23.0 °F 60% 30.17 in 10.0 mi NNW 4.6 mph - N/A   Mostly Cloudy
3:35 PM 35.6 °F 31.7 °F 23.0 °F 60% 30.17 in 10.0 mi NNW 4.6 mph - N/A   Overcast
3:55 PM 35.6 °F 31.7 °F 23.0 °F 60% 30.18 in 10.0 mi NNW 4.6 mph - N/A   Overcast
4:55 PM 35.6 °F 29.2 °F 21.2 °F 56% 30.20 in 10.0 mi North 8.1 mph - N/A   Mostly Cloudy
5:15 PM 33.8 °F 29.6 °F 23.0 °F 65% 30.19 in 10.0 mi North 4.6 mph - N/A   Scattered Clouds
5:35 PM 33.8 °F 29.6 °F 21.2 °F 60% 30.20 in 10.0 mi NNW 4.6 mph - N/A   Mostly Cloudy
5:55 PM 33.8 °F - 21.2 °F 60% 30.21 in 10.0 mi Calm Calm - N/A   Overcast
6:15 PM 33.8 °F - 21.2 °F 60% 30.21 in 10.0 mi Calm Calm - N/A   Overcast
6:35 PM 33.8 °F - 21.2 °F 60% 30.22 in 10.0 mi Calm Calm - N/A   Mostly Cloudy
6:55 PM 32.0 °F - 21.2 °F 64% 30.24 in 10.0 mi Calm Calm - N/A   Mostly Cloudy
7:15 PM 32.0 °F - 19.4 °F 60% 30.23 in 10.0 mi Calm Calm - N/A   Scattered Clouds
7:35 PM 32.0 °F - 19.4 °F 60% 30.23 in 10.0 mi Calm Calm - N/A   Scattered Clouds
7:55 PM 32.0 °F - 19.4 °F 60% 30.24 in 10.0 mi Calm Calm - N/A   Clear
8:15 PM 32.0 °F - 19.4 °F 60% 30.23 in 10.0 mi Calm Calm - N/A   Clear
8:35 PM 30.2 °F - 19.4 °F 64% 30.24 in 10.0 mi Calm Calm - N/A   Clear
8:55 PM 30.2 °F - 19.4 °F 64% 30.24 in 10.0 mi Calm Calm - N/A   Clear
9:15 PM 30.2 °F - 19.4 °F 64% 30.24 in 10.0 mi Calm Calm - N/A   Clear
9:35 PM 30.2 °F - 19.4 °F 64% 30.24 in 10.0 mi Calm Calm - N/A   Clear
10:15 PM 30.2 °F - 19.4 °F 64% 30.23 in 10.0 mi Calm Calm - N/A   Clear
10:35 PM 30.2 °F - 19.4 °F 64% 30.23 in 10.0 mi Calm Calm - N/A   Clear